Showing default

KOMPASS, 27002

Orbit data source: Space-Track

KOMPASS, 27002 is a Commonwealth of Independent States-origin payload satellite in SSO that was launched on Mon, 10 Dec 2001 UTC via a ZENIT-2 launch vehicle from the Tyuratam Missile And Space Complex (TTMTR). Payloads include a variety of satellites, spacecraft, and rockets equipped with specific instruments for various scientific and technological missions. These include communications satellites like Starlink; space stations such as the ISS; scientific satellites like the Hubble; Earth observation satellites from companies like Planet Labs, Umbra, and HawkEye 360; GPS; miniature CubeSats for education and research; and military/defense satellites.

Loading next visibility...
KOMPASS details
Identifier
27002, 2001-056B
Orbit
SSO
Last TLE update6 hours ago
Origin
Flag of CISIZM/MAK (CIS)
ManufacturerMakeev
MissionCivil Science
Bus & MotorSHTIL, Unknown motor
Mass65 kg wet, 65 kg dry
Launch date (UTC)
2001-12-10 (23 years ago)
Launch vehicle
ZENIT-2
Launch site
Tyuratam Missile And Space Complex (TTMTR)
Object type
Payload
Rocket body
Debris
Shape & HBRTrunc Poly + 4 Pan, 0.8 m
Radar Cross Section0.451 m², Medium (>0.1 m² and < 1m²)

Expand to show TLE details & history

TLE from 6 hours ago
0 KOMPASS
1 27002U 01056B   24361.42788441  .00000093  00000-0  15647-3 0  9995
2 27002  99.7391 156.6884 0020128  74.4835 310.5337 13.70550099152620
Epoch: 2024-12-26T10:16Z
Definitive object data (Epoch: 2024-12-26T10:16:09.213Z)
Latitude24.48677°
Longitude-97.21754°
Altitude990.835 km
Speed7.363 km/s
True Right ascension10h 08m 54s
True Declination24° 21' 41"
Sunlit
Object was in full shadow at TLE epoch
Visualization TLE readout
Latitude-58.72781°
Longitude71.17995°
Altitude1,034.628 km
Speed7.326 km/s
Apparent Right ascension01h 10m 56s
Apparent Declination-60° 56' 23"
Sunlit
Object is in daylight
Visualization observer readout
Local Sidereal Time15:56:26
Azimuth143.667° SSE
Elevation-57.186°
Doppler factor1
Orbital elements
Apogee altitude1,009.713 km
Perigee altitude980.032 km
Semi-major axis7,373.01 km
Eccentricity0.0020128
Inclination99.7391°
RAAN156.6884°
Arg. of periapsis74.4835°
True anomaly310.35811°
Mean anomaly310.5337°
Eccentric anomaly310.44594°
Mean motion3.42828 °/min
BSTAR0.00015647
Orbital period105.01 mins
Loading maneuver chart data...
Loading historical data...
Loading historical data...
Loading historical data...
Loading historical data...
Loading historical data...
Loading historical data...
Loading historical data...

KOMPASS Visibility forecast

Observer location: undefined°, undefined

Span
Click to sort rows by Start time (UTC) header in descending order
Start Az.
Max El. time (UTC)
Max El. Az.
Max El.
End time (UTC)
End Az.
11 mins2024-12-26 23:00:15.366Z27.092° NE2024-12-26 23:06:15.366Z116.164° SE36.993°2024-12-26 23:11:15.366Z174.02° S
8 mins2024-12-27 00:45:15.366Z343.468° N2024-12-27 00:49:15.366Z293.67° NW23.884°2024-12-27 00:53:15.366Z247.922° W
7 mins2024-12-27 09:06:15.366Z94.253° ESE2024-12-27 09:09:15.366Z58.569° ENE19.625°2024-12-27 09:13:15.366Z16.025° NNE
10 mins2024-12-27 10:47:15.366Z178.253° S2024-12-27 10:52:15.366Z261.183° W41.975°2024-12-27 10:57:15.366Z336.765° NNW
|